User: anonymous   Login
Location: Unspecified
(0.0000°N, 0.0000°E)
Time: 20:33:44
(UTC+00:00)
Language:

OBJECT Y - Orbit

View from above orbital plane
View from above orbital plane
View from above satellite
View from above satellite

Ground track
Ground track

The orbit data is extracted from the following two-line orbital elements,

1 43133U 18004Y   18350.80090430  .00000630  00000-0  29926-4 0  9999
2 43133  97.5127  53.7270 0010063 170.3268 189.8164 15.22877267 51491
Epoch (UTC): 16 December 2018 19:13:18
Eccentricity: 0.0010063
inclination: 97.5127°
perigee height: 490 km
apogee height: 504 km
right ascension of ascending node: 53.7270°
argument of perigee: 170.3268°
revolutions per day: 15.22877267
mean anomaly at epoch: 189.8164°
orbit number at epoch: 5149

The dashed part of the orbit path shows where the satellite is in the earth's shadow,  

DLR